SPACEBEE-29 (46949 NORAD) Tracking and Keplerian Element Data

This shows tracking and keplerian element data for the satellite.

Feedback or suggestion? Click here.




ElementValue
Catalog46949
NameSPACEBEE-29
Epoch Orbit894
Epoch Day17.95435524
Epoch Year2021
RAAN157.3113
Inclination97.3737
Eccentricity0.0016604
Argument of Perigee104.5537
Mean Anonmoly255.7541
Mean Motion15.20962322
Decay Rate3.687E-05
L11 46949U 20085W 21017.95435524 .00003687 00000-0 16897-3 0 9993
L22 46949 97.3737 157.3113 0016604 104.5537 255.7541 15.20962322 8945

Live tracking and technical data element details for SPACEBEE-29 (NORAD 46949). SPACEBEE-29 can be tracked NOW for your location showing map with azimuth and elevation plus other details from your city location.

Track the satellite on the map from your city or location and see movement details for azimuth, elevation, latitude, longitude, range, height, and movement on the map or in text.







IsCatalogInMostPopularTable: catalog: 46949, numindb: 19
Update: records affected: 1



GetName: 46949 SPACEBEE-29

Hit Count: updated at: Mon, 18 Jan 2021 17:14:13 GMT